Location: Bailleul
(50.3375°N, 2.8513°E)
Time: 19:36:40
(UTC+00:00)

Cosmos 2058 - Pass Details

Date: 19 April 2021
Orbit: 561 x 584 km, 82.5° (Epoch: 18 May)

Event Time Altitude Azimuth Distance (km) Brightness Sun altitude
Rises 20:25:12 0° 343° (NNW) 2,815 7.4 -14.1°
Reaches altitude 10° 20:27:31 10° 335° (NNW) 1,907 6.6 -14.4°
Maximum altitude 20:31:24 37° 268° (W) 911 4.3 -14.9°
Drops below altitude 10° 20:35:13 10° 201° (SSW) 1,880 5.3 -15.3°
Enters shadow 20:36:35 - 195° (SSW) 2,410 5.8 -15.5°
